Regional Weather Roundup
Issued by NWS Albany, NY

Home | Current Version | Previous Version | Graphics & Text | Print | Product List | Glossary Off
Versions: 1 2 3 4 5 6 7 8 9 10 11 12 13 14 15 16 17 18 19 20 21 22 23 24 25 26 27 28 29 30 31 32 33 34 35 36 37 38 39 40 41 42 43 44 45 46 47 48 49

000
ASUS41 KALY 060110
RWRALY

NEW YORK STATE HOURLY WEATHER ROUNDUP
NATIONAL WEATHER SERVICE ALBANY NY
800 PM EST THU MAR 05 2015

NOTE: "FAIR" INDICATES FEW OR NO CLOUDS BELOW 12,000 FEET WITH NO
SIGNIFICANT WEATHER AND/OR NO OBSTRUCTIONS TO VISIBILITY.

NYZ032-033-038>043-046>054-057>066-NYZ062>081-060200-
EAST


CITY           SKY/WX    TMP DP  RH WIND       PRES   REMARKS
ALBANY         CLOUDY    18  -1  43 NW14      30.30R WCI   4
GLENS FALLS    MOCLDY    13  -3  49 N5        30.30R WCI   5
POUGHKEEPSIE   CLOUDY    22   4  46 N6        30.27R WCI  14
NEWBURGH       CLOUDY    19   5  53 NW12      30.26R WCI   7
MONTGOMERY     CLOUDY    20   2  45 NW13G18   30.26R WCI   7
WHITE PLAINS   CLOUDY    20   8  60 NW9       30.23R WCI   9
ISLIP          FLURRIES  22  13  68 NW14      30.22R WCI   9
NEW YORK CITY  CLOUDY    24  13  62 NW10      30.26R WCI  14
CENTRAL PARK   CLOUDY    21  12  68 VRB3      30.28R HAZE
$$

NYZ005>009-017-018-044>046-055-056-060200-
CENTRAL


CITY           SKY/WX    TMP DP  RH WIND       PRES   REMARKS
FULTON         LGT SNOW  11   6  81 SW6       30.37R WCI   1
SYRACUSE       MOCLDY     7   3  84 W12       30.37R WCI  -8
ROME           CLEAR      8  -2  63 W5        30.37R WCI   0
ELMIRA         CLEAR     12   0  58 N7        30.35R WCI   1
BINGHAMTON     PTCLDY     8   3  80 NW7       30.24R WCI  -3
MONTICELLO     CLOUDY    12   0  57 NW15      30.21R WCI  -4
$$

NYZ026>034-041>043-060200-
NORTH


CITY           SKY/WX    TMP DP  RH WIND       PRES   REMARKS
WATERTOWN      CLEAR      5  -5  63 S5        30.36R WCI  -4
FORT DRUM      NOT AVBL
MASSENA        CLEAR     -3 -14  59 S5        30.36R WCI -13
SARANAC LAKE   CLEAR     -7 -15  68 CALM      30.17R
PLATTSBURGH    CLEAR      6  -8  52 NW6       30.33R WCI  -4
$$

NYZ001>004-010>016-019>021-060200-
WEST


CITY           SKY/WX    TMP DP  RH WIND       PRES   REMARKS
NIAGARA FALLS  MOCLDY     9   0  67 W8        30.42R WCI  -3
BUFFALO        PTCLDY     9  -1  64 SW8       30.41R WCI  -3
DUNKIRK        CLEAR      9   0  67 W7        30.45R WCI  -2
JAMESTOWN      CLOUDY     5  -2  72 W7        30.33R WCI  -7
WELLSVILLE     CLEAR      4  -6  63 NW9       30.27R WCI -10
ROCHESTER      CLOUDY    11   1  64 W10       30.40R WCI  -3
PENN YAN       CLEAR      9  -3  58 W7        30.35R WCI  -2
$$

             KEY
       WCI = WIND CHILL INDEX
       VSB = VISIBILITY
       HX  = HEAT INDEX
$$



USA.gov is the U.S. government's official web portal to all federal, state and local government web resources and services.